| time (UTC) | temp F | wind direction | speed MPH | gust MPH | rain 1hr in | rain 24hr in | rain mn in | humidity % | barometer mb |
| 20260508015732 | 54 | 0 | 0.0 | 0.0 | 0.00 | 0.00 | 0.55 | 97 | 1013.0 |
| 20260508015232 | 54 | 0 | 0.0 | 0.0 | 0.00 | 0.00 | 0.55 | 97 | 1013.0 |
| 20260508014733 | 54 | 0 | 0.0 | 0.0 | 0.00 | 0.00 | 0.55 | 96 | 1013.0 |
| 20260508014232 | 55 | 0 | 0.0 | 0.0 | 0.00 | 0.00 | 0.55 | 96 | 1012.0 |
| 20260508013731 | 55 | 0 | 0.0 | 0.0 | 0.00 | 0.00 | 0.55 | 96 | 1012.0 |
| 20260508013231 | 55 | 274 | 0.0 | 1.0 | 0.00 | 0.00 | 0.55 | 96 | 1012.0 |
| 20260508012732 | 55 | 0 | 0.0 | 0.0 | 0.00 | 0.00 | 0.55 | 96 | 1012.0 |
| 20260508012232 | 55 | 42 | 0.0 | 1.0 | 0.00 | 0.00 | 0.55 | 96 | 1012.0 |
| 20260508011732 | 55 | 0 | 0.0 | 0.0 | 0.00 | 0.00 | 0.55 | 96 | 1012.0 |
| 20260508011231 | 55 | 0 | 0.0 | 0.0 | 0.00 | 0.00 | 0.55 | 96 | 1012.0 |
| 20260508010735 | 55 | 0 | 0.0 | 0.0 | 0.00 | 0.00 | 0.55 | 96 | 1012.0 |
| 20260508010232 | 55 | 56 | 0.0 | 0.0 | 0.00 | 0.00 | 0.55 | 95 | 1012.0 |
| 20260508005732 | 55 | 0 | 0.0 | 0.0 | 0.00 | 0.00 | 0.55 | 95 | 1012.0 |
| 20260508005231 | 55 | 0 | 0.0 | 0.0 | 0.00 | 0.00 | 0.55 | 95 | 1012.0 |
| 20260508004731 | 55 | 0 | 0.0 | 0.0 | 0.00 | 0.00 | 0.55 | 95 | 1012.0 |
| 20260508004232 | 55 | 277 | 0.0 | 1.0 | 0.00 | 0.00 | 0.55 | 95 | 1012.0 |
| 20260508003732 | 55 | 0 | 0.0 | 0.0 | 0.00 | 0.00 | 0.55 | 95 | 1012.0 |
| 20260508003232 | 55 | 0 | 0.0 | 0.0 | 0.00 | 0.00 | 0.55 | 95 | 1012.0 |
| 20260508002732 | 55 | 0 | 0.0 | 0.0 | 0.00 | 0.00 | 0.55 | 95 | 1012.0 |
| 20260508002232 | 55 | 0 | 0.0 | 0.0 | 0.00 | 0.00 | 0.55 | 95 | 1012.0 |
| 20260508001732 | 55 | 292 | 2.0 | 2.0 | 0.00 | 0.00 | 0.55 | 95 | 1012.0 |
| 20260508001232 | 55 | 0 | 0.0 | 0.0 | 0.00 | 0.00 | 0.55 | 95 | 1012.0 |
| 20260508000732 | 56 | 57 | 0.0 | 2.0 | 0.00 | 0.00 | 0.55 | 95 | 1011.0 |
| 20260508000234 | 56 | 0 | 0.0 | 0.0 | 0.00 | 0.00 | 0.55 | 94 | 1011.0 |
| 20260507235731 | 56 | 0 | 0.0 | 0.0 | 0.00 | 0.00 | 0.55 | 94 | 1011.0 |
| 20260507235232 | 56 | 0 | 0.0 | 0.0 | 0.00 | 0.00 | 0.55 | 94 | 1012.0 |
| 20260507234732 | 55 | 0 | 0.0 | 0.0 | 0.00 | 0.00 | 0.55 | 94 | 1012.0 |
| 20260507234232 | 56 | 307 | 1.0 | 2.0 | 0.00 | 0.00 | 0.55 | 95 | 1011.0 |
| 20260507233731 | 56 | 0 | 0.0 | 0.0 | 0.00 | 0.00 | 0.55 | 95 | 1011.0 |
| 20260507233231 | 56 | 295 | 0.0 | 1.0 | 0.00 | 0.00 | 0.55 | 94 | 1011.0 |
| 20260507232731 | 56 | 0 | 0.0 | 0.0 | 0.00 | 0.00 | 0.55 | 95 | 1011.0 |
| 20260507232231 | 56 | 320 | 1.0 | 1.0 | 0.00 | 0.00 | 0.55 | 94 | 1011.0 |
| 20260507231731 | 56 | 0 | 0.0 | 0.0 | 0.00 | 0.00 | 0.55 | 94 | 1011.0 |
| 20260507231231 | 56 | 351 | 1.0 | 1.0 | 0.00 | 0.00 | 0.55 | 94 | 1011.0 |
| 20260507230732 | 56 | 79 | 0.0 | 0.0 | 0.00 | 0.00 | 0.55 | 94 | 1011.0 |
| 20260507230232 | 56 | 315 | 1.0 | 2.0 | 0.00 | 0.00 | 0.55 | 94 | 1011.0 |
| 20260507225732 | 56 | 10 | 0.0 | 1.0 | 0.00 | 0.00 | 0.55 | 93 | 1011.0 |
| 20260507225231 | 56 | 174 | 0.0 | 0.0 | 0.02 | 0.00 | 0.54 | 93 | 1011.0 |
| 20260507224732 | 56 | 57 | 1.0 | 2.0 | 0.08 | 0.00 | 0.54 | 91 | 1011.0 |
| 20260507224231 | 56 | 60 | 2.0 | 3.0 | 0.07 | 0.00 | 0.53 | 91 | 1010.0 |
| 20260507223731 | 56 | 139 | 4.0 | 6.0 | 0.00 | 0.00 | 0.53 | 90 | 1010.0 |
| 20260507223231 | 56 | 100 | 2.0 | 4.0 | 0.00 | 0.00 | 0.53 | 91 | 1010.0 |
| 20260507222731 | 56 | 90 | 4.0 | 5.0 | 0.00 | 0.00 | 0.53 | 91 | 1010.0 |
| 20260507222232 | 56 | 87 | 4.0 | 5.0 | 0.00 | 0.00 | 0.53 | 91 | 1011.0 |
| 20260507221731 | 56 | 31 | 3.0 | 4.0 | 0.00 | 0.00 | 0.53 | 91 | 1011.0 |
| 20260507221232 | 56 | 85 | 3.0 | 4.0 | 0.00 | 0.00 | 0.53 | 91 | 1011.0 |
| 20260507220731 | 56 | 118 | 1.0 | 3.0 | 0.00 | 0.00 | 0.53 | 92 | 1011.0 |
| 20260507220232 | 56 | 25 | 2.0 | 4.0 | 0.00 | 0.00 | 0.53 | 92 | 1011.0 |
| 20260507215731 | 56 | 312 | 0.0 | 1.0 | 0.00 | 0.00 | 0.53 | 92 | 1011.0 |
| 20260507215231 | 56 | 74 | 1.0 | 2.0 | 0.00 | 0.00 | 0.53 | 91 | 1011.0 |
| 20260507214731 | 56 | 38 | 4.0 | 5.0 | 0.00 | 0.00 | 0.53 | 91 | 1011.0 |
| 20260507214232 | 56 | 75 | 2.0 | 4.0 | 0.00 | 0.00 | 0.53 | 92 | 1011.0 |
| 20260507213732 | 56 | 55 | 5.0 | 8.0 | 0.00 | 0.00 | 0.53 | 92 | 1011.0 |
| 20260507213231 | 56 | 20 | 1.0 | 1.0 | 0.00 | 0.00 | 0.53 | 93 | 1011.0 |
| 20260507212733 | 56 | 50 | 1.0 | 3.0 | 0.00 | 0.00 | 0.53 | 93 | 1011.0 |
| 20260507212231 | 56 | 73 | 3.0 | 5.0 | 0.00 | 0.00 | 0.53 | 93 | 1011.0 |
| 20260507211732 | 56 | 86 | 2.0 | 5.0 | 0.00 | 0.00 | 0.53 | 93 | 1011.0 |
| 20260507211231 | 56 | 39 | 1.0 | 4.0 | 0.00 | 0.00 | 0.53 | 93 | 1011.0 |
| 20260507210732 | 56 | 338 | 2.0 | 4.0 | 0.00 | 0.00 | 0.53 | 93 | 1011.0 |
| 20260507210232 | 56 | 89 | 1.0 | 3.0 | 0.00 | 0.00 | 0.53 | 93 | 1010.0 |
| 20260507205731 | 56 | 84 | 2.0 | 4.0 | 0.00 | 0.00 | 0.53 | 93 | 1010.0 |
| 20260507205232 | 57 | 9 | 1.0 | 2.0 | 0.00 | 0.00 | 0.53 | 93 | 1011.0 |
| 20260507204733 | 57 | 60 | 3.0 | 4.0 | 0.00 | 0.00 | 0.53 | 92 | 1010.0 |
| 20260507204232 | 57 | 356 | 1.0 | 3.0 | 0.00 | 0.00 | 0.53 | 93 | 1010.0 |
| 20260507203732 | 56 | 38 | 3.0 | 6.0 | 0.00 | 0.00 | 0.53 | 92 | 1010.0 |
| 20260507203232 | 56 | 55 | 2.0 | 4.0 | 0.00 | 0.00 | 0.53 | 92 | 1010.0 |
| 20260507202731 | 56 | 85 | 3.0 | 5.0 | 0.00 | 0.00 | 0.53 | 92 | 1010.0 |
| 20260507202231 | 56 | 331 | 2.0 | 3.0 | 0.00 | 0.00 | 0.53 | 94 | 1010.0 |
| 20260507201732 | 56 | 173 | 2.0 | 4.0 | 0.00 | 0.00 | 0.53 | 94 | 1010.0 |
| 20260507201232 | 56 | 315 | 2.0 | 6.0 | 0.00 | 0.00 | 0.53 | 94 | 1010.0 |
| 20260507200732 | 57 | 74 | 2.0 | 3.0 | 0.00 | 0.00 | 0.53 | 94 | 1010.0 |
| 20260507200233 | 57 | 12 | 2.0 | 7.0 | 0.00 | 0.00 | 0.53 | 94 | 1010.0 |
| 20260507195732 | 57 | 47 | 4.0 | 7.0 | 0.00 | 0.00 | 0.53 | 94 | 1010.0 |
| 20260507195231 | 57 | 56 | 4.0 | 6.0 | 0.00 | 0.00 | 0.53 | 94 | 1010.0 |
| 20260507194731 | 57 | 144 | 2.0 | 5.0 | 0.00 | 0.00 | 0.53 | 94 | 1010.0 |
| 20260507194234 | 57 | 74 | 3.0 | 4.0 | 0.00 | 0.00 | 0.53 | 95 | 1010.0 |
| 20260507193732 | 57 | 119 | 2.0 | 4.0 | 0.00 | 0.00 | 0.53 | 95 | 1010.0 |
| 20260507193232 | 57 | 89 | 5.0 | 6.0 | 0.00 | 0.00 | 0.53 | 95 | 1010.0 |
| 20260507192732 | 57 | 60 | 5.0 | 9.0 | 0.00 | 0.00 | 0.53 | 95 | 1010.0 |
| 20260507192231 | 57 | 40 | 3.0 | 6.0 | 0.00 | 0.00 | 0.53 | 95 | 1010.0 |
| 20260507191733 | 57 | 36 | 3.0 | 7.0 | 0.00 | 0.00 | 0.52 | 95 | 1010.0 |
| 20260507191231 | 57 | 80 | 5.0 | 9.0 | 0.00 | 0.00 | 0.52 | 95 | 1010.0 |
| 20260507190732 | 57 | 79 | 2.0 | 3.0 | 0.00 | 0.00 | 0.52 | 95 | 1010.0 |
| 20260507190234 | 57 | 312 | 2.0 | 3.0 | 0.00 | 0.00 | 0.52 | 95 | 1010.0 |
| 20260507185732 | 57 | 62 | 4.0 | 6.0 | 0.00 | 0.00 | 0.52 | 95 | 1010.0 |
| 20260507185232 | 57 | 4 | 3.0 | 5.0 | 0.00 | 0.00 | 0.52 | 95 | 1010.0 |
| 20260507184731 | 57 | 21 | 3.0 | 5.0 | 0.00 | 0.00 | 0.52 | 96 | 1010.0 |
| 20260507184231 | 57 | 39 | 1.0 | 2.0 | 0.03 | 0.00 | 0.52 | 96 | 1010.0 |
| 20260507183731 | 57 | 41 | 3.0 | 5.0 | 0.00 | 0.00 | 0.52 | 96 | 1010.0 |
| 20260507183234 | 57 | 76 | 3.0 | 3.0 | 0.00 | 0.00 | 0.52 | 96 | 1010.0 |
| 20260507182732 | 57 | 50 | 3.0 | 3.0 | 0.00 | 0.00 | 0.52 | 96 | 1010.0 |
| 20260507182232 | 57 | 24 | 1.0 | 1.0 | 0.00 | 0.00 | 0.52 | 96 | 1010.0 |
| 20260507181733 | 57 | 348 | 0.0 | 1.0 | 0.00 | 0.00 | 0.52 | 95 | 1010.0 |
| 20260507181232 | 57 | 25 | 5.0 | 7.0 | 0.00 | 0.00 | 0.52 | 95 | 1010.0 |
| 20260507180736 | 57 | 113 | 2.0 | 3.0 | 0.00 | 0.00 | 0.52 | 96 | 1010.0 |
| 20260507180232 | 57 | 0 | 3.0 | 4.0 | 0.00 | 0.00 | 0.52 | 96 | 1010.0 |
| 20260507175734 | 57 | 314 | 2.0 | 4.0 | 0.00 | 0.00 | 0.53 | 96 | 1010.0 |
| 20260507175231 | 57 | 99 | 2.0 | 6.0 | 0.00 | 0.00 | 0.53 | 95 | 1010.0 |
| 20260507174732 | 57 | 37 | 4.0 | 6.0 | 0.00 | 0.00 | 0.53 | 95 | 1010.0 |
| 20260507174232 | 57 | 38 | 2.0 | 4.0 | 0.00 | 0.00 | 0.53 | 95 | 1010.0 |
| 20260507173732 | 57 | 65 | 4.0 | 6.0 | 0.00 | 0.00 | 0.53 | 95 | 1010.0 |
| 20260507173231 | 57 | 75 | 3.0 | 4.0 | 0.00 | 0.00 | 0.53 | 95 | 1011.0 |
| 20260507172732 | 57 | 40 | 4.0 | 7.0 | 0.00 | 0.00 | 0.53 | 95 | 1011.0 |
| 20260507172232 | 58 | 350 | 2.0 | 4.0 | 0.00 | 0.00 | 0.54 | 95 | 1010.0 |
| 20260507171733 | 58 | 45 | 2.0 | 5.0 | 0.00 | 0.00 | 0.54 | 95 | 1010.0 |
| 20260507171232 | 58 | 63 | 6.0 | 6.0 | 0.00 | 0.00 | 0.54 | 96 | 1010.0 |
| 20260507170733 | 58 | 311 | 2.0 | 4.0 | 0.00 | 0.00 | 0.54 | 96 | 1010.0 |
| 20260507170234 | 58 | 83 | 3.0 | 5.0 | 0.00 | 0.00 | 0.53 | 96 | 1009.0 |
| 20260507165732 | 58 | 61 | 3.0 | 5.0 | 0.00 | 0.00 | 0.54 | 96 | 1010.0 |
| 20260507165234 | 59 | 227 | 6.0 | 8.0 | 0.01 | 0.00 | 0.54 | 96 | 1009.0 |
| 20260507164731 | 59 | 228 | 5.0 | 7.0 | 0.00 | 0.00 | 0.54 | 96 | 1009.0 |
| 20260507164232 | 60 | 227 | 6.0 | 8.0 | 0.02 | 0.00 | 0.54 | 95 | 1010.0 |
| 20260507163734 | 61 | 231 | 4.0 | 8.0 | 0.09 | 0.00 | 0.54 | 96 | 1010.0 |
| 20260507163234 | 63 | 225 | 6.0 | 11.0 | 0.19 | 0.00 | 0.51 | 95 | 1009.0 |
| 20260507162731 | 65 | 58 | 5.0 | 8.0 | 0.26 | 0.00 | 0.50 | 93 | 1009.0 |
| 20260507162233 | 67 | 44 | 3.0 | 5.0 | 0.03 | 0.00 | 0.50 | 96 | 1010.0 |
| 20260507161732 | 67 | 0 | 0.0 | 0.0 | 0.03 | 0.00 | 0.49 | 96 | 1010.0 |
| 20260507161231 | 68 | 222 | 0.0 | 1.0 | 0.02 | 0.00 | 0.49 | 96 | 1010.0 |
| 20260507160731 | 67 | 0 | 0.0 | 0.0 | 0.04 | 0.00 | 0.48 | 96 | 1010.0 |
| 20260507160235 | 67 | 54 | 1.0 | 1.0 | 0.01 | 0.00 | 0.48 | 96 | 1010.0 |
| 20260507155732 | 67 | 0 | 0.0 | 0.0 | 0.02 | 0.00 | 0.48 | 96 | 1010.0 |
| 20260507155233 | 67 | 0 | 0.0 | 0.0 | 0.07 | 0.00 | 0.47 | 97 | 1010.0 |
| 20260507154733 | 68 | 288 | 0.0 | 0.0 | 0.02 | 0.00 | 0.46 | 97 | 1010.0 |
| 20260507154232 | 67 | 0 | 0.0 | 0.0 | 0.00 | 0.00 | 0.46 | 97 | 1010.0 |
| 20260507153732 | 67 | 0 | 0.0 | 0.0 | 0.00 | 0.00 | 0.46 | 97 | 1010.0 |
| 20260507153232 | 67 | 89 | 0.0 | 0.0 | 0.00 | 0.00 | 0.45 | 97 | 1010.0 |
| 20260507152734 | 67 | 0 | 0.0 | 0.0 | 0.09 | 0.00 | 0.45 | 97 | 1010.0 |
| 20260507152233 | 67 | 51 | 1.0 | 2.0 | 0.05 | 0.00 | 0.46 | 97 | 1010.0 |
| 20260507151735 | 67 | 0 | 0.0 | 0.0 | 0.08 | 0.00 | 0.45 | 97 | 1010.0 |
| 20260507151234 | 67 | 0 | 0.0 | 0.0 | 0.05 | 0.00 | 0.44 | 97 | 1010.0 |
| 20260507150734 | 67 | 0 | 0.0 | 0.0 | 0.04 | 0.00 | 0.44 | 97 | 1010.0 |
| 20260507150234 | 67 | 0 | 0.0 | 0.0 | 0.03 | 0.00 | 0.43 | 97 | 1010.0 |
| 20260507145734 | 67 | 0 | 0.0 | 0.0 | 0.01 | 0.00 | 0.44 | 97 | 1010.0 |
| 20260507145232 | 67 | 0 | 0.0 | 0.0 | 0.02 | 0.00 | 0.44 | 97 | 1010.0 |
| 20260507144734 | 67 | 0 | 0.0 | 0.0 | 0.01 | 0.00 | 0.42 | 97 | 1010.0 |
| 20260507144234 | 67 | 58 | 0.0 | 0.0 | 0.03 | 0.00 | 0.42 | 97 | 1010.0 |
| 20260507143733 | 67 | 0 | 0.0 | 0.0 | 0.10 | 0.00 | 0.42 | 97 | 1010.0 |
| 20260507143231 | 67 | 0 | 0.0 | 0.0 | 0.19 | 0.00 | 0.40 | 97 | 1010.0 |
| 20260507142732 | 67 | 0 | 0.0 | 0.0 | 0.08 | 0.00 | 0.39 | 97 | 1010.0 |
| 20260507142231 | 67 | 149 | 0.0 | 0.0 | 0.09 | 0.00 | 0.38 | 98 | 1010.0 |
| 20260507141733 | 67 | 44 | 1.0 | 2.0 | 0.04 | 0.00 | 0.37 | 98 | 1010.0 |
| 20260507141232 | 67 | 50 | 0.0 | 1.0 | 0.02 | 0.00 | 0.37 | 98 | 1010.0 |
| 20260507140736 | 67 | 0 | 0.0 | 0.0 | 0.02 | 0.00 | 0.36 | 98 | 1010.0 |
| 20260507140234 | 67 | 0 | 0.0 | 0.0 | 0.02 | 0.00 | 0.36 | 98 | 1010.0 |
| 20260507135732 | 67 | 0 | 0.0 | 0.0 | 0.03 | 0.00 | 0.36 | 98 | 1010.0 |
| 20260507135234 | 67 | 259 | 0.0 | 0.0 | 0.05 | 0.00 | 0.35 | 98 | 1010.0 |
| 20260507134732 | 67 | 276 | 2.0 | 3.0 | 0.05 | 0.00 | 0.34 | 98 | 1010.0 |
| 20260507134231 | 67 | 281 | 0.0 | 1.0 | 0.03 | 0.00 | 0.34 | 98 | 1010.0 |
| 20260507133732 | 66 | 0 | 0.0 | 0.0 | 0.04 | 0.00 | 0.33 | 98 | 1010.0 |
| 20260507133232 | 66 | 291 | 0.0 | 2.0 | 0.05 | 0.00 | 0.33 | 98 | 1010.0 |
| 20260507132734 | 66 | 285 | 2.0 | 3.0 | 0.01 | 0.00 | 0.32 | 98 | 1011.0 |
| 20260507132232 | 66 | 239 | 1.0 | 2.0 | 0.02 | 0.00 | 0.32 | 98 | 1011.0 |
| 20260507131337 | 66 | 267 | 2.0 | 2.0 | 0.00 | 0.00 | 0.32 | 98 | 1010.0 |
| 20260507130733 | 66 | 291 | 1.0 | 2.0 | 0.00 | 0.00 | 0.32 | 98 | 1010.0 |
| 20260507130232 | 66 | 0 | 0.0 | 0.0 | 0.01 | 0.00 | 0.30 | 98 | 1010.0 |
| 20260507125733 | 66 | 263 | 0.0 | 0.0 | 0.02 | 0.00 | 0.30 | 98 | 1010.0 |
| 20260507125233 | 66 | 0 | 0.0 | 0.0 | 0.02 | 0.00 | 0.30 | 98 | 1010.0 |
| 20260507124734 | 65 | 0 | 0.0 | 0.0 | 0.03 | 0.00 | 0.30 | 98 | 1010.0 |
| 20260507124232 | 65 | 293 | 0.0 | 0.0 | 0.01 | 0.00 | 0.30 | 98 | 1010.0 |
| 20260507123734 | 65 | 0 | 0.0 | 0.0 | 0.02 | 0.00 | 0.29 | 98 | 1011.0 |
| 20260507123232 | 65 | 0 | 0.0 | 0.0 | 0.00 | 0.00 | 0.29 | 98 | 1011.0 |
| 20260507122732 | 65 | 0 | 0.0 | 0.0 | 0.00 | 0.00 | 0.29 | 98 | 1010.0 |
| 20260507122233 | 65 | 0 | 0.0 | 0.0 | 0.00 | 0.00 | 0.30 | 98 | 1010.0 |
| 20260507121732 | 65 | 0 | 0.0 | 0.0 | 0.00 | 0.00 | 0.30 | 98 | 1010.0 |
| 20260507121232 | 65 | 0 | 0.0 | 0.0 | 0.00 | 0.00 | 0.30 | 98 | 1010.0 |
| 20260507120731 | 65 | 0 | 0.0 | 0.0 | 0.00 | 0.00 | 0.30 | 98 | 1010.0 |
| 20260507120234 | 65 | 0 | 0.0 | 0.0 | 0.00 | 0.00 | 0.37 | 98 | 1010.0 |
| 20260507115731 | 65 | 0 | 0.0 | 0.0 | 0.00 | 0.00 | 0.37 | 98 | 1010.0 |
| 20260507115231 | 65 | 0 | 0.0 | 0.0 | 0.00 | 0.00 | 0.37 | 98 | 1010.0 |
| 20260507114732 | 65 | 0 | 0.0 | 0.0 | 0.00 | 0.00 | 0.37 | 98 | 1010.0 |
| 20260507114231 | 65 | 0 | 0.0 | 0.0 | 0.00 | 0.00 | 0.37 | 98 | 1010.0 |
| 20260507113733 | 65 | 0 | 0.0 | 0.0 | 0.00 | 0.00 | 0.37 | 98 | 1011.0 |
| 20260507113239 | 65 | 283 | 1.0 | 2.0 | 0.00 | 0.00 | 0.37 | 98 | 1011.0 |
| 20260507112731 | 65 | 0 | 0.0 | 0.0 | 0.00 | 0.00 | 0.37 | 98 | 1011.0 |
| 20260507111745 | 65 | 0 | 0.0 | 0.0 | 0.00 | 0.00 | 0.34 | 98 | 1011.0 |
| 20260507111232 | 65 | 39 | 0.0 | 0.0 | 0.00 | 0.00 | 0.34 | 98 | 1011.0 |
| 20260507110732 | 65 | 247 | 0.0 | 0.0 | 0.05 | 0.00 | 0.33 | 98 | 1011.0 |
| 20260507110233 | 65 | 0 | 0.0 | 0.0 | 0.00 | 0.00 | 0.32 | 98 | 1011.0 |
| 20260507105731 | 65 | 250 | 0.0 | 1.0 | 0.00 | 0.00 | 0.32 | 98 | 1011.0 |
| 20260507105232 | 65 | 0 | 0.0 | 0.0 | 0.01 | 0.00 | 0.32 | 98 | 1011.0 |
| 20260507104731 | 65 | 296 | 1.0 | 2.0 | 0.00 | 0.00 | 0.31 | 98 | 1010.0 |
| 20260507104232 | 65 | 316 | 1.0 | 2.0 | 0.01 | 0.00 | 0.31 | 98 | 1010.0 |
| 20260507103732 | 65 | 181 | 0.0 | 1.0 | 0.10 | 0.00 | 0.30 | 98 | 1010.0 |
| 20260507103231 | 65 | 240 | 1.0 | 2.0 | 0.60 | 0.00 | 0.26 | 98 | 1010.0 |
| 20260507102731 | 65 | 0 | 0.0 | 0.0 | 0.01 | 0.00 | 0.24 | 98 | 1010.0 |
| 20260507102233 | 65 | 297 | 0.0 | 0.0 | 0.00 | 0.00 | 0.24 | 98 | 1010.0 |
| 20260507101731 | 65 | 0 | 0.0 | 0.0 | 0.19 | 0.00 | 0.20 | 97 | 1010.0 |
| 20260507101233 | 65 | 280 | 1.0 | 2.0 | 0.12 | 0.00 | 0.18 | 97 | 1010.0 |
| 20260507100732 | 65 | 148 | 0.0 | 0.0 | 0.56 | 0.00 | 0.17 | 98 | 1010.0 |
| 20260507100232 | 65 | 264 | 0.0 | 0.0 | 0.00 | 0.00 | 0.11 | 97 | 1010.0 |
| 20260507095731 | 65 | 0 | 0.0 | 0.0 | 0.00 | 0.00 | 0.11 | 97 | 1010.0 |
| 20260507095232 | 65 | 259 | 2.0 | 3.0 | 0.00 | 0.00 | 0.11 | 97 | 1010.0 |
| 20260507094732 | 65 | 0 | 0.0 | 0.0 | 0.00 | 0.00 | 0.11 | 97 | 1010.0 |
| 20260507094231 | 65 | 0 | 0.0 | 0.0 | 0.00 | 0.00 | 0.11 | 97 | 1010.0 |
| 20260507093732 | 65 | 261 | 2.0 | 4.0 | 0.00 | 0.00 | 0.11 | 97 | 1010.0 |
| 20260507093232 | 65 | 0 | 0.0 | 0.0 | 0.00 | 0.00 | 0.11 | 97 | 1010.0 |
| 20260507092732 | 65 | 0 | 0.0 | 0.0 | 0.00 | 0.00 | 0.11 | 97 | 1010.0 |
| 20260507092232 | 65 | 0 | 0.0 | 0.0 | 0.00 | 0.00 | 0.11 | 97 | 1010.0 |
| 20260507091732 | 65 | 0 | 0.0 | 0.0 | 0.00 | 0.00 | 0.11 | 97 | 1010.0 |
| 20260507091232 | 65 | 0 | 0.0 | 0.0 | 0.00 | 0.00 | 0.11 | 97 | 1010.0 |
| 20260507090732 | 65 | 0 | 0.0 | 0.0 | 0.00 | 0.00 | 0.11 | 97 | 1010.0 |
| 20260507090232 | 65 | 259 | 0.0 | 1.0 | 0.00 | 0.00 | 0.11 | 97 | 1010.0 |
| 20260507085733 | 65 | 299 | 1.0 | 2.0 | 0.00 | 0.00 | 0.11 | 97 | 1010.0 |
| 20260507085231 | 65 | 0 | 0.0 | 0.0 | 0.00 | 0.00 | 0.11 | 97 | 1010.0 |
| 20260507084732 | 65 | 251 | 1.0 | 3.0 | 0.00 | 0.00 | 0.11 | 97 | 1011.0 |
| 20260507084234 | 65 | 258 | 1.0 | 3.0 | 0.02 | 0.00 | 0.11 | 97 | 1010.0 |
| 20260507083731 | 65 | 253 | 0.0 | 2.0 | 0.02 | 0.00 | 0.11 | 97 | 1010.0 |
| 20260507083231 | 65 | 277 | 2.0 | 6.0 | 0.04 | 0.00 | 0.10 | 97 | 1010.0 |
| 20260507082731 | 65 | 272 | 1.0 | 4.0 | 0.05 | 0.00 | 0.10 | 97 | 1011.0 |
| 20260507082233 | 65 | 255 | 1.0 | 2.0 | 0.00 | 0.00 | 0.09 | 97 | 1011.0 |
| 20260507081732 | 65 | 267 | 1.0 | 3.0 | 0.00 | 0.00 | 0.09 | 97 | 1011.0 |
| 20260507081232 | 65 | 285 | 3.0 | 4.0 | 0.00 | 0.00 | 0.09 | 97 | 1011.0 |
| 20260507080731 | 65 | 258 | 0.0 | 1.0 | 0.00 | 0.00 | 0.09 | 97 | 1011.0 |
| 20260507080232 | 65 | 253 | 0.0 | 2.0 | 0.00 | 0.00 | 0.09 | 97 | 1011.0 |
| 20260507075731 | 65 | 0 | 0.0 | 0.0 | 0.00 | 0.00 | 0.09 | 97 | 1011.0 |
| 20260507075231 | 65 | 296 | 0.0 | 1.0 | 0.00 | 0.00 | 0.09 | 97 | 1011.0 |
| 20260507074731 | 65 | 242 | 0.0 | 1.0 | 0.00 | 0.00 | 0.09 | 97 | 1011.0 |
| 20260507074232 | 65 | 0 | 0.0 | 0.0 | 0.00 | 0.00 | 0.09 | 97 | 1011.0 |
| 20260507073731 | 65 | 257 | 1.0 | 2.0 | 0.00 | 0.00 | 0.09 | 97 | 1011.0 |
| 20260507073232 | 65 | 243 | 0.0 | 1.0 | 0.00 | 0.00 | 0.09 | 97 | 1011.0 |
| 20260507072732 | 65 | 0 | 0.0 | 1.0 | 0.00 | 0.00 | 0.09 | 97 | 1011.0 |
| 20260507072231 | 65 | 0 | 0.0 | 0.0 | 0.00 | 0.00 | 0.09 | 97 | 1011.0 |
| 20260507071731 | 65 | 251 | 0.0 | 2.0 | 0.00 | 0.00 | 0.09 | 97 | 1011.0 |
| 20260507071232 | 65 | 218 | 0.0 | 1.0 | 0.00 | 0.00 | 0.09 | 97 | 1011.0 |
| 20260507070732 | 65 | 0 | 0.0 | 0.0 | 0.00 | 0.00 | 0.09 | 97 | 1011.0 |
| 20260507070231 | 65 | 0 | 0.0 | 0.0 | 0.00 | 0.00 | 0.09 | 97 | 1011.0 |
| 20260507065731 | 65 | 242 | 0.0 | 1.0 | 0.00 | 0.00 | 0.10 | 97 | 1012.0 |
| 20260507065234 | 65 | 233 | 0.0 | 1.0 | 0.00 | 0.00 | 0.10 | 97 | 1011.0 |
| 20260507064731 | 65 | 111 | 0.0 | 2.0 | 0.00 | 0.00 | 0.10 | 97 | 1011.0 |
| 20260507064232 | 65 | 0 | 0.0 | 0.0 | 0.00 | 0.00 | 0.10 | 97 | 1012.0 |
| 20260507063732 | 65 | 0 | 0.0 | 0.0 | 0.00 | 0.00 | 0.10 | 97 | 1012.0 |
| 20260507063231 | 65 | 281 | 0.0 | 2.0 | 0.00 | 0.00 | 0.10 | 97 | 1012.0 |
| 20260507062731 | 65 | 265 | 1.0 | 2.0 | 0.00 | 0.00 | 0.10 | 97 | 1012.0 |
| 20260507062231 | 65 | 279 | 2.0 | 3.0 | 0.00 | 0.00 | 0.10 | 97 | 1012.0 |
| 20260507061732 | 65 | 293 | 2.0 | 3.0 | 0.00 | 0.00 | 0.10 | 97 | 1012.0 |
| 20260507061231 | 65 | 267 | 1.0 | 2.0 | 0.00 | 0.00 | 0.10 | 97 | 1012.0 |
| 20260507060732 | 66 | 0 | 0.0 | 0.0 | 0.00 | 0.00 | 0.10 | 97 | 1011.0 |
| 20260507060232 | 66 | 0 | 0.0 | 0.0 | 0.00 | 0.00 | 0.10 | 97 | 1012.0 |
| 20260507055732 | 66 | 0 | 0.0 | 0.0 | 0.00 | 0.00 | 0.09 | 97 | 1012.0 |
| 20260507055231 | 66 | 254 | 0.0 | 1.0 | 0.00 | 0.00 | 0.09 | 97 | 1012.0 |
| 20260507054732 | 66 | 0 | 0.0 | 0.0 | 0.00 | 0.00 | 0.09 | 96 | 1012.0 |
| 20260507054232 | 66 | 0 | 0.0 | 0.0 | 0.00 | 0.00 | 0.09 | 96 | 1012.0 |
| 20260507053732 | 66 | 240 | 0.0 | 2.0 | 0.00 | 0.00 | 0.09 | 96 | 1012.0 |
| 20260507053231 | 66 | 265 | 0.0 | 2.0 | 0.00 | 0.00 | 0.09 | 96 | 1012.0 |
| 20260507052731 | 66 | 227 | 1.0 | 2.0 | 0.00 | 0.00 | 0.09 | 96 | 1012.0 |
| 20260507052232 | 66 | 62 | 1.0 | 2.0 | 0.00 | 0.00 | 0.11 | 96 | 1012.0 |
| 20260507051731 | 66 | 126 | 0.0 | 1.0 | 0.00 | 0.00 | 0.11 | 96 | 1012.0 |
| 20260507051232 | 66 | 255 | 4.0 | 4.0 | 0.14 | 0.00 | 0.11 | 96 | 1013.0 |
| 20260507050732 | 66 | 39 | 1.0 | 2.0 | 0.38 | 0.00 | 0.09 | 95 | 1012.0 |
| 20260507050232 | 66 | 121 | 2.0 | 2.0 | 0.13 | 0.00 | 0.07 | 95 | 1012.0 |
| 20260507045731 | 66 | 265 | 1.0 | 2.0 | 0.00 | 0.00 | 0.06 | 94 | 1013.0 |
| 20260507045231 | 67 | 0 | 0.0 | 0.0 | 0.03 | 0.00 | 0.06 | 94 | 1012.0 |
| 20260507044732 | 67 | 281 | 1.0 | 3.0 | 0.01 | 0.00 | 0.05 | 93 | 1012.0 |
| 20260507044231 | 67 | 276 | 4.0 | 6.0 | 0.01 | 0.00 | 0.05 | 93 | 1012.0 |
| 20260507043732 | 67 | 301 | 3.0 | 7.0 | 0.10 | 0.00 | 0.05 | 93 | 1012.0 |
| 20260507043233 | 67 | 266 | 1.0 | 3.0 | 0.24 | 0.00 | 0.04 | 91 | 1012.0 |
| 20260507042732 | 68 | 273 | 6.0 | 10.0 | 0.09 | 0.00 | 0.03 | 90 | 1013.0 |
| 20260507042231 | 68 | 270 | 8.0 | 11.0 | 0.10 | 0.00 | 0.02 | 88 | 1013.0 |
| 20260507041732 | 68 | 254 | 3.0 | 4.0 | 0.07 | 0.00 | 0.00 | 88 | 1014.0 |
| 20260507041231 | 68 | 267 | 4.0 | 10.0 | 0.01 | 0.00 | 0.00 | 88 | 1014.0 |
| 20260507040731 | 68 | 251 | 3.0 | 7.0 | 0.00 | 0.00 | 0.00 | 91 | 1014.0 |
| 20260507040234 | 68 | 257 | 3.0 | 5.0 | 0.00 | 0.00 | 0.00 | 91 | 1014.0 |
| 20260507035732 | 68 | 263 | 2.0 | 4.0 | 0.00 | 0.00 | 0.11 | 90 | 1013.0 |
| 20260507035231 | 68 | 270 | 3.0 | 5.0 | 0.07 | 0.00 | 0.11 | 91 | 1013.0 |
| 20260507034732 | 68 | 271 | 2.0 | 5.0 | 0.00 | 0.00 | 0.10 | 91 | 1013.0 |
| 20260507034232 | 68 | 300 | 2.0 | 3.0 | 0.13 | 0.00 | 0.10 | 90 | 1013.0 |
| 20260507033732 | 68 | 271 | 2.0 | 4.0 | 0.08 | 0.00 | 0.08 | 90 | 1013.0 |
| 20260507033231 | 68 | 277 | 0.0 | 1.0 | 0.00 | 0.00 | 0.08 | 90 | 1012.0 |
| 20260507032732 | 68 | 0 | 0.0 | 0.0 | 0.00 | 0.00 | 0.08 | 90 | 1012.0 |
| 20260507032232 | 69 | 0 | 0.0 | 0.0 | 0.00 | 0.00 | 0.08 | 89 | 1012.0 |
| 20260507031733 | 69 | 284 | 1.0 | 3.0 | 0.03 | 0.00 | 0.08 | 90 | 1013.0 |
| 20260507031231 | 69 | 242 | 0.0 | 1.0 | 0.00 | 0.00 | 0.07 | 90 | 1013.0 |
| 20260507030731 | 69 | 287 | 2.0 | 4.0 | 0.04 | 0.00 | 0.07 | 89 | 1013.0 |
| 20260507030232 | 69 | 278 | 0.0 | 2.0 | 0.02 | 0.00 | 0.07 | 89 | 1013.0 |
| 20260507025731 | 69 | 292 | 1.0 | 3.0 | 0.10 | 0.00 | 0.06 | 87 | 1013.0 |
| 20260507025233 | 69 | 339 | 0.0 | 1.0 | 0.08 | 0.00 | 0.05 | 87 | 1012.0 |
| 20260507024732 | 69 | 317 | 0.0 | 1.0 | 0.01 | 0.00 | 0.05 | 86 | 1012.0 |
| 20260507024232 | 69 | 278 | 1.0 | 3.0 | 0.02 | 0.00 | 0.04 | 86 | 1012.0 |
| 20260507023732 | 69 | 288 | 1.0 | 4.0 | 0.00 | 0.00 | 0.04 | 87 | 1012.0 |
| 20260507023232 | 69 | 283 | 1.0 | 3.0 | 0.00 | 0.00 | 0.04 | 87 | 1012.0 |
| 20260507022731 | 69 | 0 | 0.0 | 0.0 | 0.00 | 0.00 | 0.04 | 87 | 1012.0 |
| 20260507022232 | 69 | 260 | 0.0 | 1.0 | 0.01 | 0.00 | 0.04 | 86 | 1012.0 |
| 20260507021733 | 69 | 307 | 0.0 | 1.0 | 0.01 | 0.00 | 0.04 | 86 | 1012.0 |
| 20260507021232 | 69 | 275 | 0.0 | 1.0 | 0.00 | 0.00 | 0.04 | 85 | 1012.0 |
| 20260507020733 | 69 | 0 | 0.0 | 0.0 | 0.00 | 0.00 | 0.04 | 85 | 1012.0 |
| 20260507020233 | 69 | 0 | 0.0 | 0.0 | 0.00 | 0.00 | 0.04 | 85 | 1012.0 |